COSMOS 1897 DEB

Satellite information

Favourite Embed

Satellite Type and Status

DEBRISIN ORBIT

Key statistics

Satellite COSMOS 1897 DEB at a glance.

Uptime

13677

Days in orbit

Revolutions

≈ 1.0

Per day

Orbit

OTHER

Other

Inclination

11.4

Latest

Satellite identification and parameters

Extended collection of information and parameters for COSMOS 1897 DEB.

Object identification

Identified? True

Debris? True

Object name: COSMOS 1897 DEB

International designator: 1987-096G

Object number (NORAD): 44572

Object ID (CCSDS): 44572

Country: COMMONWEALTH OF INDEPENDENT STATES (CIS)

Current information (Y/N): Y

RCS size: LARGE

Orbital parameters

Period: 1433.474 minutes

Inclination: 11.4357 deg

SMA: 42113.384 km

Apoapsis: 35809.862 km

Periapsis: 35660.637 km

RAAN: 329.0062 deg

Eccentricy: 0.0017717

Argument of periapsis: 283.7592 deg

Mean anomaly: 243.803 deg

Mean motion: 1.00455229 rev/day

Mean motion (dot): 0.00000023 rev/day2

B* drag term: 0.0 1/REarth

Two-line elements (TLE)

Creation date: May 7, 2025, 3:14 a.m.

Reference frame: TEME

Reference center: EARTH

Epoch: May 6, 2025, 5:47 p.m. UTC

TLE line 0: 0 COSMOS 1897 DEB

TLE line 1: 1 44572U 87096G 25126.74120387 .00000023 00000-0 00000-0 0 9995

TLE line 2: 2 44572 11.4357 329.0062 0017717 283.7592 243.8030 1.00455229 66905

Live tracking on map

Real-time ground track for satellite COSMOS 1897 DEB.

In-orbit conjunctions

A list of the most updated potential collisions computed for object COSMOS 1897 DEB.

Target Orbit TCA Probability of collision Miss distance Type
GORIZONT 30 OTHER 2025-04-07 14:35:37 TBA 718.0 (m) PAYLOAD

Associated space launch

Geostationary communications satellite

COSMOS 1897 DEB was lifted into orbit during the mission ‘Proton | Luch #2’, on board a Proton space rocket.

The launch took place on Nov. 26, 1987, 1:28 p.m. from 200/39 (200L).

For more information about the launch, click the button.

Launch to space Proton | Luch #2
Proton | Luch #2

Agency: N/A

Status: Launch Successful

Launch date: Nov. 26, 1987, 1:28 p.m. UTC

Rocket: Proton

Launch pad: 200/39 (200L)

Location: Baikonur Cosmodrome, Republic of Kazakhstan

...

Latest news about this satellite

There are no fresh news available about this satellite. Check back as we update our databases every day.


Newsletter sign-up

Weekly statistics, charts and insights to help you stay on top of the space industry.